timestamp,gas_concentrations,,corrected_fluxes_and_quality_flags,,,,,,,,,,storage_terms,,,turbulence,,,footprint,,
ISOdate,CO2_1_1_1,H2O_1_1_1,Tau_1_1_1,QcTau_1_1_1,H_1_1_1,QcH_1_1_1,LE_1_1_1, QcLE_1_1_1,Fc_1_1_1, QcFc_1_1_1,E_1_1_1, QcE_1_1_1,Sa_1_1_1,Sw_1_1_1,Sc_1_1_1,ustar_1_1_1,MO_length_1_1_1,ZL_1_1_1,Fetchmax_1_1_1,Fetch70_1_1_1,Fetch90_1_1_1
yyyymmddHHMM,[µmol+1mol_a-1],[mmol+1mol_a-1],[kg+1m-1s-2],[#],[W+1m-2],[#],[W+1m-2],[#],[µmol+1s-1m-2],[#],[mmol+1s-1m-2],[#],[W+1m-2],[W+1m-2],[µmol+1s-1m-2],[m+1s-1],[m],[#],[m],[m],[m]
201211140030,380.78844525948119,3.6384021707437308,0.22635780886005616,0,-37.182935091970386,0,10.412003359544663,0,1.5793086309365134,0,0.23056988002591958,0,-9999.,-9999.,-9999.,0.42666871487244667,177.71782141080928,0.12154099025370019,108.21121141407612,197.84460666069000,296.40727278527834
201211140100,380.99558491413694,3.6713372490970229,0.19712404020372590,0,-34.180134714882563,0,7.8119325089075371,0,1.4727369414690286,0,0.17301370029886515,0,3.1831934656253416,1.2421213364829686,0.17301771849270925,0.39831050607779228,157.26190166002152,0.13735049476062050,106.90585516096212,195.45799910797373,292.83169977447290
201211140130,381.32650750401109,3.7334819876245455,0.22925508421867902,0,-28.660285096326877,0,10.364023010665679,0,1.7632402613714386,0,0.22956964733557270,0,3.7932422484373487,2.3418697015770698,0.27623002062362728,0.42969272370512207,235.45463593231358,9.17374164856511048E-002,104.85544470050785,191.70919484138764,287.21530786154955
201211140200,381.73127977925532,3.8322611254195840,0.25256680235862539,0,-28.732892566038846,0,10.738617112177147,0,2.0582862484753361,0,0.23792078515774681,0,5.7901199663445491,3.7182133999227283,0.33757001669659809,0.45122218467944170,271.96127849172996,7.94230712540823502E-002,109.58402254271213,200.35454323948966,300.16761515064763
201211140230,382.23304725007017,3.9351459860071207,0.18546520689715151,0,-15.974893081588267,0,9.8140912969512559,0,1.3851258360282173,0,0.21745372886310868,0,1.9350750080415535,3.8716723430211846,0.41837564140262890,0.38671107049138048,307.94412169602850,7.01425956145425300E-002,108.86645045660462,199.04259260820632,298.20207403627933
201211140300,382.64314005253198,3.9254806635378534,0.23543391342108039,0,-17.606516085772903,0,12.981583500025115,0,1.9899421215065960,0,0.28757529148140337,0,-5.4939666588588931,-0.36409494084991234,0.34221917559665860,0.43552184570345381,399.11861884930840,5.41192492153700216E-002,113.79979089128490,208.06231233103381,311.71525778920329
201211140330,382.76183265265792,3.9105143785014502,0.21950436373148674,0,-15.865202990413648,0,10.452155704609655,0,1.4872224453350609,0,0.23154170150005202,0,-3.24130278572934832E-002,-0.56378977234177585,9.90490180375475093E-002,0.42052673693419457,398.73220138520031,5.41716970060640915E-002,108.14328517843900,197.72041583798367,296.22121230233336
201211140400,382.81557706999939,3.9230999001332476,0.28398321663596476,0,-20.052078353841054,0,11.780839144595296,0,2.0413577573767259,0,0.26101030263577535,0,3.4337624802759543,0.47376118737399103,4.48232188604243478E-002,0.47846241752040980,464.63303202538208,4.64883004676689277E-002,113.65088361551024,207.79006233937795,311.30737769125892
201211140430,383.04252123744885,3.9974020436978583,0.29553794924550453,0,-19.280736333961325,0,6.2685847833505051,0,1.7771428868083754,0,0.13890492396257687,0,3.9415030001125810,2.7947652569289314,0.18915209478650263,0.48826209168574880,513.51700216673680,4.20628721324918728E-002,115.66319426836215,211.46920800635652,316.81940832851143
201211140500,383.11792149588035,4.1756580276016813,0.20760856832064684,0,-14.262696838790550,0,7.9894179687409981,1,1.6698290306134038,0,0.17704339090321866,1,0.97102846979207424,6.7031170742649042,6.28304396190493691E-002,0.40928997596458011,408.88553560663109,5.28265201848086702E-002,111.51509385976355,203.88515749066772,305.45711866106330
201211140530,382.97302108488384,4.5048117015957025,0.26809246223501582,0,-5.0331955798308448,0,5.2825264082477750,0,1.6398209379259496,0,0.11700841424600128,0,-11.193162373068613,12.402472750895326,-0.12093572390976505,0.46476560525820004,1696.4987449600574,1.27321049096965622E-002,125.62299284093936,229.67889631185977,344.10083964981635
201211140600,382.32218853891175,4.6010080180279127,0.30352596100217050,0,-7.4703837707591116,0,6.0503953456843993,0,1.4973556692955521,0,0.13399962239841021,0,-3.2918125513387504,3.6263312449152658,-0.54337307337980401,0.49445364528183849,1376.2049473929658,1.56953366872559785E-002,123.28072975089758,225.39649235676563,337.68501816891393
201211140630,382.34697725247503,4.5296328204632870,0.34515683500430461,0,-10.769724379072425,1,7.6338453637314085,1,1.6153791166422544,0,0.16908478640748797,1,2.4468227817638204,-2.6884751381732048,2.06811109896837611E-002,0.52745391136238340,1158.4795251756784,1.86451288353365191E-002,116.55884819141525,213.10674903186526,319.27274318376726
201211140700,382.42079807905617,4.3602540711469757,0.37203826776173371,0,-20.676789538710914,0,15.925078629002744,0,1.4717987234569994,0,0.35279637137178232,0,4.8089503192452252,-6.3740494644397048,6.15428969764757750E-002,0.54779312330822716,675.91580854016195,3.19566427165707614E-002,114.48930960838580,209.32297245660990,313.60395637966838
201211140730,382.55771149556966,4.2963894720431490,0.39697854906707403,0,-12.922005437847988,0,11.436299888521361,0,1.9616818459951559,0,0.25338813402629490,0,3.4389204560073043,-2.4017708668918218,0.11408226323105618,0.56599747343587170,1192.9872010930862,1.81058103391291969E-002,115.18549632716692,210.59582381590752,315.51091965978191
201211140800,382.64093583721245,4.2228154853358362,0.41183353442439097,0,-10.605492861802871,0,12.150800465583378,0,1.4090514434912929,0,0.26926489805064291,0,4.3746917701623200,-2.7646664696718584,6.93016662273096412E-002,0.57666710865238480,1537.3393064290128,1.40502489656452352E-002,115.27463086879089,210.75879018600014,315.75507297854136
201211140830,383.16454303457982,4.1813035345211897,0.54699812835214590,0,-4.9823060749885304,0,16.657018029468269,0,1.1075988979186613,0,0.36919513049224967,0,4.9449712697558112,-1.5583740344324639,0.43567523722051488,0.66484721472968411,5014.7747327482630,4.30727224075377023E-003,121.04816918295749,221.31465959989831,331.56968889181286
201211140900,383.63601447755724,4.1945131012174190,0.51496486408115050,0,9.0781274407836641,0,15.073443428392258,0,0.87501610471311941,0,0.33417733099871405,0,6.2313574963261456,0.49525858624122149,0.39188924509347517,0.64542157262755773,-2517.8251663230781,-8.57883235456880291E-003,124.22121077517043,227.11599162017470,340.26114139929081
201211140930,383.71780411447463,4.2184384455566795,0.59680713182407619,0,26.561469843909435,0,17.484156479210466,0,0.68500549784581843,0,0.38783543113214070,0,13.994693487541893,0.89434832335272063,6.78187182932016158E-002,0.69566791757215429,-1077.3472347792460,-2.00492462436458116E-002,121.82870638737758,222.74173054915153,333.70770122016859
201211141000,383.92988614333518,4.2673425345137144,0.44242013814416103,0,40.671928550927547,0,19.440277514874484,0,0.44548002767343120,0,0.43153742387753552,0,18.329635335881505,1.8214068274613926,0.17534026603312428,0.59985072965391251,-451.02441582630047,-4.78909771667852258E-002,110.55311970714813,202.12636193376676,302.82212242231333
201211141030,383.92452881434861,4.3327365276006704,0.50449567540653717,0,43.720305542686063,0,16.854066452243927,0,-8.99963747978738127E-004,0,0.37422456921608627,0,6.5197852424864271,2.4320736108598804,-4.42399645465596427E-003,0.64093725958575676,-511.77266714555668,-4.22062399707184843E-002,115.81254513469155,211.74226902302240,317.22850348970894
201211141100,384.05034697654025,4.4072860554942874,0.64124389618563393,0,64.901881654636796,0,25.489635295109633,0,-0.43886817455056182,1,0.56620714133000094,0,10.735114967085797,2.7664760728145601,0.10371392711275212,0.72325410059835604,-495.32664539359547,-4.36075874392669732E-002,123.39418179983173,225.60391888589240,337.99578090760826
201211141130,384.01819197417268,4.4805916959279832,0.53254407087769640,0,72.260145887770349,1,21.660675056516279,0,-0.29295898828438416,1,0.48127516547515581,0,6.3878920452896688,2.7160376722991186,-2.64708817349243244E-002,0.65955349901615379,-337.30737034349380,-6.40365491510127560E-002,117.43105750937599,214.70142584199181,321.66185963349790
201211141200,384.15608357027423,4.5559966050175102,0.54238720664254048,0,53.784087899513729,0,19.778516963968876,0,-0.18405902565684640,0,0.43966424959241540,0,11.958247976768028,2.7863702861054493,0.11326727105969173,0.66636132652612046,-467.24255464153003,-4.62286660010486211E-002,107.66442568219398,196.84490795444464,294.90954195436740
201211141230,384.11708099235688,4.6502778464842365,0.41467951017550425,0,48.926581580734506,0,12.576636217405028,0,-0.50321532078614650,0,0.27972915238751633,0,14.230413817399020,3.4737010082220721,-3.19619807534516007E-002,0.58335408291269719,-344.56273633545374,-6.26881485494445029E-002,103.56986341081316,189.35874222870297,283.69390153920415
201211141300,384.16581231729407,4.7574153546442615,0.42537443559993260,0,56.950692041220833,0,15.974981556623552,0,-0.82439691863596876,0,0.35542915983389956,0,8.0593451926652548,3.9406814433438808,3.98795910889451349E-002,0.59124762163278866,-308.16897441086536,-7.00914167018055062E-002,105.59762837377349,193.06614330345917,289.24826392611698
201211141330,383.92466632046364,4.8451745233698045,0.45503758021776397,0,39.874222929937915,0,19.016772986103472,0,-0.56212264403030821,0,0.42316877803621217,0,3.7009240653384841,3.2248793448099597,-0.19718679210699480,0.61176823249952206,-487.51048670723111,-4.43067392168153204E-002,116.65804365057348,213.28810996797554,319.54445491435001
201211141400,384.18447303542609,4.9397655206861977,0.48670917344694653,0,34.264789629274844,0,18.213189358118871,0,-0.63798604730934505,0,0.40536531914413537,0,4.8323366451393603,3.4721193371572090,0.21225395820608964,0.63299751550412209,-628.39014302002420,-3.43735499990357116E-002,117.64341009711154,215.08967409875660,322.24352627022688
201211141430,384.28741716360639,4.9788885166965811,0.58486520408151244,0,19.438941021905332,0,24.775798747757310,0,0.28810162239295900,0,0.55134902410459041,0,-3.5564744033757969,1.4369398411056773,8.41408716184574995E-002,0.69374257801843875,-1458.0440106228536,-1.48143676340557230E-002,117.93117123382332,215.61579323337307,323.03174860534097
201211141500,384.27738054907093,5.0235964043566881,0.31064115848103097,0,-1.2844684885459310,2,11.662254088452402,0,0.36312705659394567,1,0.25955158476449519,0,2.4359863590699762,1.6411163916428864,-8.19943000775278860E-003,0.50571768189872301,8547.0990195292743,2.52717324915110271E-003,114.43364786179417,209.22120503143685,313.45149023230630
201211141530,384.28761394911851,5.0575155601374142,0.34993758930758495,0,-12.514083791808208,0,10.737646423415281,0,0.53380786595553686,0,0.23898757805928944,0,1.4438654763961942,1.2447762853941795,8.35857901642957438E-003,0.53680763857305513,1049.2664959656065,2.05858093087421118E-002,112.11226178025386,204.97697090626374,307.09285411207924
201211141600,384.53791805061786,5.0893505850583001,0.40860503035121265,0,-28.506328189496898,0,9.9989290399777175,0,1.2532530424102881,0,0.22248554723344530,0,-6.8065968504643681,1.1699379791203517,0.20467930296532116,0.57973715001217097,580.24654268740073,3.72255557094058956E-002,112.24991039104772,205.22863646756770,307.46989498238213
201211141630,384.73149091919720,5.0917439112563825,0.26001901533177574,0,-27.734905199610075,0,6.4195017471272369,0,1.2327362749264001,0,0.14278362448497331,0,-9.9018109948262225,8.81108374072886724E-002,0.15850720233918980,0.46214978202754742,302.09244247814962,7.15012921965511722E-002,113.20274679131039,206.97072529883118,310.07986150176311
201211141700,384.92380056705980,5.0993709812449364,0.19629170024631901,0,-36.717342078471283,0,4.0194745955509568,0,1.2959379351197819,0,8.93683462779647358E-002,0,-9.4214042847133026,0.28127773759067703,0.15768599929897270,0.40127122715621899,149.35998006856315,0.14461705197124827,113.25965477645590,207.07477124554813,310.23574128959899
201211141730,385.13203283376578,5.1272009134510617,0.17538548219137523,0,-31.821859742935189,0,2.0210730130721979,0,1.2679856642534504,0,4.49253742432259989E-002,0,-6.0735585183965126,1.0274281625140127,0.17088228577844689,0.37914705222717349,145.36423461732130,0.14859225900279455,112.47909776770848,205.64766408766829,308.09767471412249
201211141800,385.09584983253916,5.1669250569061393,0.20048926008165488,0,-40.269716756732620,0,2.2910221655354954,0,1.5849537543475591,0,5.09196808144054755E-002,0,-3.0942320742990641,1.4674998562920780,-2.97087578800314805E-002,0.40526980099705812,140.29269532381446,0.15396382505977441,107.13470485882608,195.87640934353669,293.45855455167367
201211141830,385.18347007459312,5.1912136833869367,0.16013722078834039,0,-30.725956267837425,0,1.4053859489319038,0,1.2107602263550163,0,3.12270096015250416E-002,0,-7.0659583252239582,0.89857593569144045,7.20262934087805978E-002,0.36198741627320435,131.03408245008478,0.16484260885505231,110.60594897223227,202.22295067937046,302.96682996400159
201211141900,385.30542512910961,5.1865639550110441,0.16774941687648504,0,-36.291098738149060,0,1.2871455672156631,0,1.3456898675440880,0,2.85924566885551595E-002,0,-6.4570824535203020,-0.17222234839075948,0.10034264270013507,0.37032062488431511,118.77394773517463,0.18185806241079594,116.48764536987693,212.97656756511799,319.07770762441072
201211141930,385.54726918543025,5.1824627022822947,0.17864666389491637,0,-34.386685835614067,0,1.6948193294182119,0,1.6028110199615839,0,3.76386165052212465E-002,0,-6.6147877303340641,-0.15208254557875026,0.19916292794677137,0.38198897806028448,137.56637004920876,0.15701511926405765,115.73202072392957,211.59504471820594,317.00793465331299
201211142000,386.24265484005559,5.1962539175830003,0.26848627091727245,0,-54.719188166393202,0,5.7860045163063667,0,2.8069584880001424,0,0.12847908845621375,0,-3.2965923693285388,0.51165756897637993,0.57287025115400725,0.46820583658718351,159.17611369039383,0.13569875215079802,113.18988065773613,206.94720190321459,310.04461916860555
201211142030,386.19521264798863,5.1783286788983265,0.28658221337787904,0,-44.557706693715275,0,5.4667093522599775,0,2.2498847692941761,0,0.12140244693061041,0,2.7831973038980764,-0.66464745309129403,-3.90654292655791546E-002,0.48383832732760218,215.71045313898804,0.10013422940650234,109.38964285890023,199.99915518326102,299.63517908223434
201211142100,386.57771570332017,5.1944997507909907,0.27243019596068346,0,-44.430050979801216,0,4.7322909692166464,0,2.1958506267353957,0,0.10509753494697821,0,1.1433285266845554,0.59939676878533599,0.31487022037999690,0.47181331244236402,200.58051691047578,0.10768742813461107,112.40999553139019,205.52132316065055,307.90839298311874
201211142130,387.02468942782548,5.2029415953336482,0.24433005092647661,0,-42.251074618978954,0,3.4588590071188956,0,1.7607651657862857,0,7.68070994349572822E-002,0,-3.0633762884600566,0.31306336316253169,0.36808269086126183,0.44673331958808243,179.03440406418389,0.12064720249107203,116.96624918799861,213.85160798750323,320.38867763038570
201211142200,387.15219127500529,5.2494515733977067,0.20415619880185615,0,-39.336916163824498,0,4.0009838250865517,0,2.1723690339070183,0,8.88687334827720360E-002,0,6.6151164770809636,1.7223761635393682,0.10487706950012399,0.40859653738144314,147.12077163058606,0.14681815328046724,111.59905206063969,204.03865985896408,305.68709318056506
201211142230,387.40780774529208,5.3012907672778677,0.18839928147475904,0,-43.412099914653190,0,0.74065092771584529,1,1.5414780649205113,0,1.64546640469366949E-002,1,5.4200610897041654,1.9176488470120836,0.21007536479319563,0.39268667950521757,118.33396436206891,0.18253423787873807,110.57196986549138,202.16082603516784,302.87375592639370
201211142300,387.77276471090789,5.3284258354324443,0.18342206730600180,0,-42.717797341746333,0,2.1501539769142801,0,1.7782258360916670,0,4.77675150018962852E-002,0,-0.71846085356514766,1.0038725276557561,0.29995243826827667,0.38745596353591572,115.51148285503213,0.18699439628100162,106.42619383328528,194.58102522084636,291.51783308599079
201211142330,387.47655823607226,5.3621615744575761,0.16185847951494098,0,-44.241847034881367,0,2.8378415966882438,0,1.9857150082923827,0,6.30657685596996281E-002,0,8.2667222528359812,1.2459050536160701,-0.24310551382191528,0.36422713743497021,92.642450944667189,0.23315445327435361,104.94769631458115,191.87786021405688,287.46799932466308
201211150000,387.61350791550939,5.4276976262502394,0.29783971222929712,0,-55.583859250595658,0,1.4064641511232838,0,2.2941895314062100,0,3.12618342224650902E-002,0,4.6512385415018649,2.4176314185905432,0.11229401908220255,0.49431477791214595,184.29997054687612,0.11720023576729822,121.07555612638255,221.36473166709692,331.64470597280166
